Wind_Speed
3 6 6 6 6 5 6 7 9 10 8 8 9 8 10 10 9 9 9 5 4 8 10 12 14 13 14 13 13 15 16 15 15 16 16 16 15 14 15 15 15 17 18 18 18 18 17 17 21 24 25 28 29 22 20 21 22 24 28 31 33 31 27 27 29 26 23 20 19 20 20 20 19 18 17 17 19 18 17 24 27 27 28 24 22 21
4 7 7 5 6 5 6 7 8 9 10 10 9 9 10 10 10 10 7 5 5 7 10 12 14 14 14 14 15 16 16 16 15 16 17 17 17 17 17 17 16 16 16 17 19 19 19 17 18 25 27 28 28 25 25 25 23 24 26 26 29 32 30 28 30 30 26 22 20 21 20 19 18 18 18 17 18 18 17 23 27 27 27 24 23 23
5 6 4 3 3 5 7 7 8 10 10 10 9 9 9 9 10 9 6 6 7 7 9 12 13 13 13 14 15 15 15 16 16 17 18 18 18 19 19 19 18 16 16 17 19 18 19 18 17 24 29 29 29 28 28 26 24 25 25 26 28 32 34 30 29 30 27 22 21 23 21 19 18 18 17 16 18 18 18 22 27 28 26 23 25 24
6 5 2 2 5 8 9 8 8 9 8 9 9 8 9 8 8 6 5 5 6 7 9 12 12 11 12 14 15 17 19 19 18 19 20 19 20 21 21 22 20 20 19 18 20 19 19 19 19 24 29 30 29 29 28 23 22 25 27 29 30 32 35 33 30 28 25 22 22 24 25 21 18 16 16 17 18 19 18 21 27 29 25 23 25 24
9 8 5 6 8 9 10 10 9 8 7 9 11 10 10 9 7 5 4 5 7 9 12 12 11 10 12 15 15 15 18 19 19 20 21 21 22 22 22 23 24 23 22 20 20 19 19 20 20 22 26 29 30 30 30 26 22 25 27 28 30 31 33 33 30 27 24 23 23 23 24 22 19 17 18 20 20 19 18 21 28 30 24 22 24 24
7 5 5 8 8 8 10 9 9 9 8 9 11 12 12 11 10 10 10 10 8 9 11 11 10 9 11 16 14 12 13 15 16 17 18 19 20 19 20 22 23 25 26 25 23 21 20 21 21 22 24 29 31 30 32 31 26 26 27 26 27 27 30 31 30 28 26 26 26 26 26 23 21 21 21 22 23 21 18 20 27 29 23 21 23 24
4 2 3 7 7 8 9 9 10 10 9 9 8 8 10 11 11 12 12 9 8 7 5 7 9 9 8 11 11 9 11 12 12 12 14 17 17 17 17 18 19 21 24 27 27 25 23 23 22 22 25 28 30 29 30 30 27 27 30 29 27 26 28 31 31 29 28 29 29 29 30 25 23 23 20 21 22 20 18 19 25 28 24 21 22 24
1 4 5 6 8 8 8 7 8 10 9 9 7 4 7 11 11 11 11 9 8 8 6 7 10 9 8 10 9 8 10 11 12 13 14 16 18 18 17 17 18 19 21 24 27 27 25 25 25 24 25 28 29 29 29 29 28 29 31 31 32 30 30 31 31 30 30 33 33 30 29 24 23 25 22 21 22 20 19 20 24 27 25 21 21 23
1 6 7 8 9 7 7 7 7 9 9 10 10 6 9 13 12 11 10 9 9 9 9 11 11 9 9 10 9 10 12 13 15 16 16 16 19 19 19 18 18 18 20 21 24 27 26 25 26 26 27 28 30 30 30 32 32 30 29 32 34 32 30 30 31 31 33 35 35 32 28 23 22 25 24 22 22 21 20 21 23 24 23 22 21 22
6 7 8 8 8 6 8 8 6 8 9 10 10 10 12 13 12 10 9 9 11 10 11 12 12 10 9 9 9 10 12 13 13 14 14 14 17 18 18 18 17 17 19 20 23 25 26 25 25 26 27 28 31 32 31 33 33 27 27 33 34 32 31 30 30 31 33 37 36 33 31 25 21 23 24 22 22 23 23 23 24 22 21 23 23 21
11 10 8 7 9 8 8 9 8 9 10 10 9 10 11 11 10 10 9 9 10 11 14 16 15 12 10 8 8 8 9 10 9 10 10 11 15 17 17 16 16 16 18 19 21 22 24 25 24 25 27 29 31 33 33 33 31 25 26 31 34 34 31 28 29 29 32 39 37 32 32 28 21 23 26 25 24 25 25 25 25 23 22 24 23 22
11 9 4 4 8 8 7 8 8 9 9 9 9 9 10 9 9 9 9 9 10 11 13 16 16 15 12 9 9 10 11 12 10 10 11 11 14 16 16 16 16 16 17 18 21 22 23 24 24 25 28 29 29 32 35 35 33 27 25 29 33 35 32 29 30 29 32 38 35 28 29 27 23 23 25 26 26 26 27 27 26 24 22 23 22 21
9 6 1 3 6 6 7 6 5 8 9 8 9 9 9 8 7 8 9 9 10 11 12 14 15 15 13 11 13 14 15 15 12 12 14 14 16 18 19 19 18 17 17 17 19 22 24 23 23 25 28 29 30 32 35 37 35 29 25 26 31 33 32 32 34 31 34 37 33 27 26 25 23 23 24 25 24 27 28 27 27 25 22 21 21 22
9 3 2 5 5 6 7 6 4 5 6 8 9 9 9 8 7 10 11 9 10 11 13 15 14 12 11 12 15 17 17 17 17 18 19 18 19 21 21 21 21 20 19 19 19 21 24 23 21 21 25 28 31 32 34 37 38 34 28 26 29 30 30 34 36 34 35 35 31 27 24 24 23 23 24 24 24 27 28 26 25 23 21 20 20 23
10 5 2 4 1 4 6 7 7 7 7 9 9 9 10 9 8 10 9 7 8 9 12 14 12 10 10 9 10 11 12 15 17 18 18 17 19 21 21 23 22 21 21 21 21 22 24 24 22 21 22 25 29 32 34 37 39 38 31 27 29 31 29 32 37 40 38 33 30 27 24 24 25 24 23 23 24 26 26 25 24 22 21 22 20 22
10 9 3 3 2 4 8 8 7 8 7 6 7 9 10 9 8 9 9 9 9 8 9 10 8 8 9 10 9 8 8 11 13 14 16 17 18 20 21 23 23 22 21 20 21 23 25 26 24 24 23 24 26 30 34 37 39 40 34 28 30 31 30 32 40 45 39 31 30 30 26 25 27 26 23 22 25 25 25 26 24 20 22 23 21 21
8 8 5 4 7 8 9 9 7 8 6 4 6 9 8 8 8 8 9 10 10 9 9 9 9 9 10 11 13 14 14 15 15 17 17 16 16 17 17 20 22 23 21 19 19 21 24 26 25 26 27 25 26 29 34 37 39 41 38 31 30 30 30 31 38 46 40 32 33 32 28 28 28 29 25 22 24 24 26 28 23 20 23 23 22 22
5 10 9 9 11 5 2 7 9 11 9 6 6 6 5 7 7 7 7 7 8 9 8 11 13 12 10 9 9 12 13 13 14 14 12 11 12 13 14 16 18 20 21 21 20 22 25 27 27 27 28 27 27 29 33 37 39 41 39 34 31 32 33 31 35 45 41 34 35 34 30 29 30 32 27 23 24 24 27 29 24 21 22 23 24 25
3 9 8 6 7 0 3 3 8 11 12 11 10 7 5 6 6 5 6 7 9 9 8 12 14 12 11 9 9 12 12 11 11 11 11 11 10 11 12 13 14 15 18 20 21 23 26 28 29 29 30 30 29 29 33 38 40 41 40 37 33 31 33 32 34 43 43 38 37 34 31 29 30 34 30 24 24 24 26 28 24 21 22 23 25 26
2 5 5 2 2 2 2 2 4 6 9 11 11 8 6 6 6 4 6 6 8 8 8 11 11 9 9 9 12 14 13 10 10 10 11 11 11 11 12 14 15 15 15 16 17 19 21 24 25 27 30 32 31 31 33 37 40 43 42 40 36 31 32 33 33 40 45 42 37 32 29 28 30 34 31 25 24 24 24 25 23 22 22 23 24 23
4 5 5 1 4 3 3 4 5 8 6 6 7 8 8 7 5 5 7 7 7 7 7 8 9 9 8 8 12 14 12 10 11 10 10 12 14 14 13 15 18 18 18 18 18 18 19 21 22 23 25 28 30 32 34 38 41 43 42 42 40 33 32 34 35 38 41 40 36 32 30 29 30 32 29 25 25 26 25 24 23 22 21 22 23 24
4 4 7 7 4 6 7 6 9 11 9 7 6 7 9 8 7 7 7 7 6 7 7 8 9 10 8 6 8 10 8 7 7 8 10 13 16 16 17 20 23 23 23 22 21 21 21 22 23 23 24 25 29 32 35 39 42 44 44 42 39 34 33 35 36 36 37 37 36 33 30 28 30 31 28 26 27 26 25 25 23 22 21 22 24 26
3 3 8 11 10 11 11 9 10 12 12 11 9 9 9 8 8 8 7 5 6 8 9 8 8 9 7 3 3 5 4 2 4 7 9 11 15 18 21 25 26 24 23 22 23 23 22 23 24 24 24 25 28 32 36 39 41 45 46 43 38 34 33 34 34 34 35 35 34 33 31 29 29 31 30 28 27 25 24 24 23 22 22 21 23 26
1 3 7 10 11 9 6 5 7 11 12 10 10 11 10 10 11 10 8 6 6 8 8 7 7 10 7 2 3 5 4 3 5 6 7 9 14 18 23 26 24 22 22 24 24 23 22 22 23 24 26 27 28 32 37 39 41 44 44 42 39 35 32 33 34 35 35 34 34 35 34 30 29 32 33 30 28 27 26 25 24 24 22 20 23 27
1 4 4 8 11 7 2 1 3 7 8 6 7 10 11 12 13 11 9 8 8 11 10 8 8 9 4 2 4 5 5 5 7 9 9 10 15 20 22 22 20 22 25 27 26 25 23 22 22 23 25 27 28 32 37 39 40 42 43 41 38 34 32 34 36 36 35 34 35 36 35 32 29 33 35 33 31 30 27 26 26 26 24 21 24 28
3 5 4 5 9 8 7 7 4 3 5 7 8 9 11 12 13 11 8 7 8 11 11 9 10 10 8 5 6 7 7 8 10 12 12 12 16 20 21 21 22 25 28 29 29 27 24 22 22 23 25 26 28 32 37 40 40 40 41 41 39 35 32 35 38 37 35 35 35 37 37 34 31 34 37 35 32 29 26 26 28 28 25 23 26 29
3 5 7 8 9 9 11 11 6 4 7 10 11 11 10 10 12 11 8 8 9 9 10 11 13 15 16 13 11 10 10 10 10 11 11 12 16 19 20 22 25 28 28 27 29 29 26 24 23 23 25 27 29 34 37 39 39 39 39 40 40 36 33 34 37 37 36 35 35 38 38 35 34 36 38 36 32 27 25 28 31 29 26 26 29 30
4 6 7 9 12 13 13 15 14 11 11 13 14 14 11 10 12 12 11 12 11 9 10 13 13 14 16 16 15 14 13 13 12 11 11 15 19 21 21 24 28 30 28 24 27 30 28 24 23 24 26 27 30 35 37 38 39 39 37 39 39 36 35 36 37 37 37 34 34 38 39 34 32 34 37 36 32 26 24 28 32 31 28 29 32 31
4 7 6 7 12 14 13 15 15 13 13 12 13 14 11 10 12 14 15 16 14 12 13 17 18 18 19 21 21 19 17 16 17 17 17 18 20 20 23 27 29 30 28 24 25 27 25 22 22 23 26 28 31 36 38 38 39 38 37 38 39 37 36 36 37 38 38 34 34 38 38 34 33 33 35 36 33 27 25 27 32 32 29 31 33 31
1 5 7 8 15 16 11 9 10 10 11 9 10 12 11 11 13 15 16 18 18 19 20 22 24 24 22 22 22 21 20 18 18 19 18 17 17 20 24 26 28 29 29 25 23 23 22 21 21 22 24 27 32 36 38 39 38 37 37 37 38 38 36 36 36 38 37 34 34 36 35 35 34 32 34 37 35 30 26 25 31 34 31 31 33 31
2 4 9 9 12 12 8 8 9 6 4 3 5 8 9 11 13 15 16 16 17 19 21 22 23 21 19 18 19 20 20 18 17 19 19 17 17 20 22 23 26 29 28 25 22 20 21 21 21 21 22 26 32 36 40 39 37 37 36 36 37 36 36 36 36 38 38 34 34 36 35 36 36 34 35 37 35 32 27 24 30 35 32 32 33 31
3 6 9 9 9 8 8 10 10 3 3 4 6 7 8 9 10 12 13 13 15 17 18 18 17 15 13 15 17 19 19 19 18 18 20 18 17 18 21 22 24 25 26 26 24 21 22 22 21 21 21 24 32 37 40 40 37 36 36 36 36 35 35 36 35 37 39 36 35 37 38 39 38 36 37 37 34 34 30 24 28 34 34 33 33 33
6 8 8 8 8 8 10 12 8 2 2 4 9 11 10 10 13 14 13 13 14 14 13 13 12 13 16 18 19 19 19 18 17 18 20 19 17 19 22 22 21 22 23 26 26 25 25 24 21 20 21 23 30 36 39 39 36 36 36 36 36 36 37 36 34 35 37 36 36 37 39 40 37 35 37 38 35 33 31 25 26 33 36 35 34 34
10 9 8 7 6 8 13 11 5 4 2 2 3 6 7 10 14 15 15 17 16 13 12 11 12 16 18 17 16 17 18 19 21 23 23 22 20 22 23 19 17 20 24 24 27 29 28 26 23 21 21 22 28 35 38 38 35 34 36 36 36 38 38 36 34 35 36 36 37 37 38 39 37 35 36 37 34 33 32 28 26 30 35 36 35 35
10 10 7 6 5 7 10 9 6 3 3 2 3 5 7 10 12 14 17 17 14 12 12 11 13 17 19 18 18 20 22 24 27 28 27 25 24 23 22 18 14 17 21 23 27 31 31 30 27 24 22 21 24 30 33 35 35 34 36 37 37 37 37 35 34 35 34 35 38 39 39 39 38 36 34 33 33 34 34 31 27 27 34 37 36 36
8 8 6 6 6 6 6 7 6 2 3 2 5 6 9 9 10 12 11 6 5 5 7 12 18 20 20 22 24 25 26 28 28 26 23 22 20 17 15 13 12 17 22 25 29 32 33 33 31 26 21 19 22 27 31 34 36 35 35 36 36 36 35 35 36 35 35 38 40 40 40 39 38 35 33 34 36 35 34 35 30 27 34 38 36 36
7 7 6 5 4 5 7 8 4 1 2 1 3 7 11 10 11 12 8 2 4 4 8 15 20 20 20 22 26 28 27 25 20 15 14 14 11 10 11 15 19 24 28 30 32 33 33 34 32 27 22 19 21 27 31 33 35 35 34 34 35 35 35 35 35 35 37 41 40 37 37 38 36 33 34 38 39 36 36 38 33 30 36 40 38 38
7 7 7 6 5 5 7 7 5 3 3 6 8 13 18 18 15 13 7 2 0 6 14 17 17 19 20 20 23 27 24 17 11 9 12 12 12 16 21 24 25 28 30 33 34 32 30 30 29 26 22 20 23 27 30 33 35 34 34 34 34 34 34 34 35 35 35 38 39 38 37 37 36 35 36 39 40 39 39 39 35 34 38 40 39 38
8 6 5 6 5 6 7 6 7 5 4 8 12 17 24 28 21 12 6 2 0 12 22 21 18 20 21 20 22 21 15 10 8 10 15 17 20 26 27 26 28 31 33 34 33 30 28 26 25 22 20 22 24 27 30 33 34 34 34 34 35 35 34 34 35 34 33 34 37 37 36 36 37 37 37 36 37 38 37 35 35 36 37 37 37 37
8 6 5 6 6 7 8 6 6 2 2 10 16 18 27 32 22 10 6 5 11 23 29 25 22 22 23 25 23 15 9 8 11 18 26 27 26 29 27 25 28 31 32 30 27 24 22 21 20 20 21 24 26 28 30 32 33 34 34 34 34 34 34 32 32 32 32 32 34 35 35 36 37 37 34 33 35 38 36 34 35 36 35 34 34 35
8 7 6 7 7 8 8 7 6 2 2 11 20 22 26 26 14 6 8 12 20 30 33 29 28 28 28 26 21 14 15 21 24 29 32 28 25 26 25 23 25 27 27 23 18 15 15 14 16 19 22 25 26 28 30 32 34 34 34 34 34 34 32 29 29 31 32 32 33 34 35 35 35 33 31 31 34 36 37 35 34 34 33 31 32 36
8 7 6 7 7 7 7 8 8 2 4 15 23 20 17 14 8 7 14 22 27 31 33 32 33 34 32 27 24 25 29 31 31 31 30 26 23 22 21 21 21 21 20 17 13 10 9 9 12 17 20 22 26 29 30 32 33 33 33 33 33 33 30 27 27 30 32 33 34 34 33 32 31 30 30 32 33 35 37 36 32 31 34 33 32 36
7 7 7 7 7 6 6 8 7 3 9 23 25 14 8 10 11 16 22 26 29 31 32 33 35 38 35 28 28 34 35 32 30 29 27 25 22 19 19 20 18 17 16 15 13 11 7 6 10 15 19 20 23 28 31 33 34 33 32 31 30 30 28 26 25 27 29 32 35 35 31 30 31 31 32 34 34 35 38 36 30 31 35 35 32 33
5 6 6 6 6 5 6 7 7 7 16 25 22 12 11 15 20 22 23 24 28 31 31 31 35 42 41 33 30 36 39 36 32 29 26 23 20 18 19 18 15 16 15 14 14 13 7 4 8 11 15 19 21 25 30 33 32 31 30 28 28 28 27 25 26 26 28 33 37 35 32 32 33 33 35 36 34 35 37 34 29 31 36 35 32 33
6 7 6 6 5 6 6 8 10 14 20 24 22 19 20 22 22 23 24 24 28 31 31 31 36 43 45 40 35 35 39 40 36 29 25 22 19 19 18 15 14 14 14 14 15 14 9 5 7 6 8 14 19 22 25 28 30 28 27 26 26 26 26 26 27 29 31 35 37 35 34 35 34 35 37 36 33 36 38 34 30 34 39 38 35 34
8 8 7 7 8 8 9 10 13 17 22 25 25 22 21 22 23 24 25 27 29 32 33 33 36 41 42 40 37 36 39 41 38 30 24 20 18 18 16 14 13 12 10 11 14 15 9 4 4 4 3 8 15 19 20 24 27 26 25 25 25 26 28 28 28 30 32 35 36 35 37 38 38 39 40 36 34 38 40 35 33 39 43 41 38 37
7 7 8 9 9 9 9 10 14 21 24 24 24 22 22 25 26 26 26 28 30 33 35 35 38 42 41 38 37 38 41 42 37 32 29 23 17 15 14 12 12 11 9 9 12 14 9 5 1 2 3 5 11 15 16 20 23 23 23 24 23 24 27 28 28 29 31 34 36 38 40 42 42 43 44 40 39 42 41 37 36 41 45 44 41 42
7 8 9 9 10 10 10 13 20 26 24 18 17 22 25 28 30 29 29 29 31 33 35 35 39 42 41 38 37 37 40 41 37 34 32 25 17 13 12 11 11 10 10 10 11 11 9 7 4 2 4 6 9 12 13 16 19 20 21 22 22 24 27 28 28 28 29 34 39 41 43 44 44 45 46 43 42 44 42 38 37 41 45 45 43 45
7 8 9 10 11 10 11 16 24 25 18 14 21 28 30 30 31 31 32 33 33 34 34 35 38 40 38 37 37 36 37 39 38 35 31 24 18 13 11 11 11 10 10 11 10 8 7 5 4 3 3 6 8 10 12 14 16 18 20 21 21 24 28 30 32 31 30 35 41 44 45 46 46 48 49 46 44 45 42 38 38 41 45 44 42 43
5 7 8 9 10 9 10 17 21 18 13 18 30 35 34 33 32 31 33 35 35 35 35 35 38 40 37 34 36 36 36 36 37 35 29 23 20 18 15 14 13 10 9 9 9 7 5 2 2 3 3 4 6 7 10 12 14 16 19 20 21 24 27 30 35 36 34 36 42 45 48 50 50 50 50 48 47 47 44 40 39 40 42 42 41 42
5 7 8 8 8 10 14 19 20 16 15 22 31 34 33 32 30 30 33 34 34 36 36 35 37 38 36 35 36 36 35 36 39 39 34 26 22 21 19 17 14 12 9 8 8 7 5 3 3 4 5 7 8 7 8 10 12 15 18 20 21 24 26 28 33 36 36 37 43 46 48 50 51 52 52 50 49 48 45 44 43 42 41 41 40 40
Wind_Direction
284 274 248 256 276 297 319 308 295 300 297 282 273 265 261 259 255 252 244 222 240 264 255 252 258 257 255 256 254 256 258 258 260 261 260 258 255 254 253 251 248 247 248 246 243 241 243 247 254 252 244 252 253 229 216 220 215 216 220 220 221 221 213 208 210 208 201 198 198 198 198 200 201 199 199 202 205 203 202 207 209 209 207 204 204 204
252 271 269 284 302 302 298 289 281 278 269 262 259 256 254 253 254 253 242 222 223 251 260 258 261 259 254 256 255 254 255 253 254 256 256 256 256 255 255 255 253 252 251 248 246 241 242 242 244 252 252 252 253 240 235 234 221 219 218 213 217 219 216 211 213 213 207 204 203 202 199 198 200 199 198 202 203 201 202 207 210 209 204 202 204 204
250 272 288 308 299 275 273 277 270 263 260 256 253 253 253 251 255 252 231 229 236 242 259 262 263 263 258 257 255 250 251 252 250 251 252 252 253 253 253 255 256 256 254 250 249 244 241 241 238 248 252 252 253 251 250 242 227 223 217 209 213 217 217 216 214 215 212 207 207 208 204 196 198 200 199 201 203 202 202 205 209 207 202 201 204 205
287 303 330 280 280 281 273 266 261 258 255 250 247 253 253 254 262 251 202 207 237 246 265 273 270 267 262 258 254 248 248 249 248 247 249 249 248 250 251 253 253 253 254 251 250 247 241 239 235 242 249 250 251 251 246 233 222 227 221 211 213 216 217 219 217 214 212 208 206 210 212 203 197 199 198 198 202 204 202 204 207 205 201 204 205 205
284 305 307 272 267 275 272 265 260 254 253 247 244 252 259 267 275 271 266 274 273 260 257 264 269 263 252 249 248 242 239 240 242 243 245 245 244 246 247 248 249 247 249 249 248 247 242 239 235 235 244 249 250 249 243 232 222 227 225 216 215 216 216 217 216 210 207 206 203 204 207 202 196 197 197 198 201 202 201 203 206 203 200 205 207 205
288 325 310 279 263 258 263 264 261 258 265 257 246 251 258 267 274 269 272 277 274 261 240 234 253 261 243 242 242 236 233 230 230 235 240 242 241 241 241 243 244 243 244 245 247 248 245 242 239 233 237 246 249 248 245 238 228 227 231 224 216 213 213 215 215 209 204 206 205 203 203 198 195 198 198 200 201 201 200 201 204 202 199 203 207 206
289 330 271 277 278 266 260 256 257 257 262 261 255 264 264 262 265 262 261 258 258 271 246 211 243 267 253 238 230 227 237 231 224 231 238 242 244 242 241 241 241 241 240 241 243 247 246 243 241 234 232 240 247 248 247 239 227 230 238 231 219 216 214 214 213 207 205 209 210 209 208 204 198 198 198 201 203 201 199 200 203 203 201 202 204 205
266 297 271 273 281 273 264 257 255 248 249 261 265 279 272 261 260 258 255 249 251 268 261 221 238 265 262 246 235 231 239 238 235 244 247 246 247 246 244 242 241 241 241 239 238 240 242 241 240 236 231 235 244 249 248 240 230 233 238 231 225 224 217 213 212 207 207 212 213 210 208 205 201 199 198 200 202 202 199 199 202 203 203 204 203 205
355 305 300 293 286 271 274 285 278 256 248 264 267 259 263 265 265 262 256 252 252 257 252 233 230 247 255 248 241 232 237 242 242 247 249 246 247 248 245 241 238 239 240 241 239 237 239 240 238 237 232 233 242 248 248 246 240 235 234 234 230 225 217 213 212 209 209 213 215 213 208 203 201 200 199 200 202 203 201 200 201 200 202 205 205 205
296 303 304 293 284 272 282 287 272 252 245 259 267 262 261 260 258 255 251 253 251 248 250 242 231 241 255 246 230 219 228 240 242 243 246 243 245 248 246 243 238 236 238 241 242 237 237 239 239 238 232 230 239 246 248 249 245 231 227 235 232 223 218 215 213 208 209 213 215 215 213 205 198 198 199 199 203 204 202 203 203 199 201 207 208 206
279 281 274 262 268 276 287 281 256 242 247 256 259 258 256 250 245 242 240 246 249 245 246 244 238 244 256 248 234 228 232 239 241 244 245 243 247 250 250 249 243 239 239 241 243 239 236 238 238 238 233 228 234 244 247 248 243 225 220 232 230 222 218 214 212 206 207 214 214 214 216 210 198 197 199 199 202 205 204 204 204 201 201 206 210 208
285 272 254 228 252 266 271 263 242 229 237 248 246 248 254 248 243 245 239 234 239 243 241 239 237 239 247 247 242 243 245 246 245 250 256 256 259 261 259 257 251 246 244 243 244 242 238 238 237 236 233 227 228 237 243 245 241 225 218 226 225 220 215 212 212 207 207 214 213 210 213 210 201 198 201 200 201 205 205 204 205 203 202 206 209 209
310 305 306 202 218 236 255 260 239 224 224 234 238 240 247 247 241 241 238 230 233 242 242 237 232 233 242 248 250 250 249 248 247 254 263 266 268 268 265 262 257 251 247 244 246 244 239 237 236 234 232 226 224 228 236 242 240 228 218 221 219 214 213 215 215 211 211 214 212 209 208 207 203 200 203 201 201 207 207 205 205 203 202 204 206 210
321 333 160 204 189 190 242 284 287 251 229 230 237 237 240 244 241 241 243 239 241 246 243 235 233 242 252 251 251 251 250 251 253 257 262 264 266 268 268 267 263 257 250 245 247 246 240 237 235 234 232 227 222 222 229 238 238 231 222 217 215 211 211 215 214 212 214 213 211 209 206 206 205 202 204 203 203 210 210 205 205 203 202 205 206 211
319 317 191 242 185 169 249 285 291 293 275 246 242 244 246 248 250 253 257 256 258 265 253 238 233 241 250 249 247 249 250 249 249 253 258 261 264 268 270 269 267 263 256 249 248 247 242 238 237 236 234 231 226 222 225 233 237 233 224 214 213 212 208 212 217 218 217 213 210 210 206 206 207 204 204 203 204 210 211 208 206 204 206 209 208 212
305 303 308 288 254 238 278 288 278 279 277 257 245 243 247 253 257 265 276 278 281 286 271 253 246 244 255 268 265 261 261 252 251 257 261 262 265 270 272 270 268 264 259 254 249 247 245 243 241 238 237 236 232 223 222 228 233 232 226 214 212 212 208 214 222 221 215 209 210 211 209 206 208 208 204 202 205 207 211 211 207 206 209 211 211 214
296 301 333 297 258 255 277 288 274 257 265 286 256 244 254 266 270 269 272 273 268 268 263 251 254 254 257 264 257 252 255 255 258 260 257 263 273 280 283 279 272 264 260 258 252 248 249 249 246 242 241 239 234 226 220 222 228 232 229 219 209 209 210 213 220 220 214 210 212 211 209 207 209 211 206 201 204 205 212 214 209 208 211 211 211 212
287 291 299 278 265 262 286 289 273 253 257 276 264 267 282 265 259 260 261 263 254 257 262 252 253 255 254 257 251 249 250 249 255 258 256 268 279 283 287 286 280 270 261 258 255 253 253 254 252 247 243 240 236 229 221 219 225 231 231 221 208 208 210 209 216 219 213 211 212 211 209 206 209 214 208 201 203 203 212 217 210 207 210 210 211 212
294 290 299 275 263 323 85 288 272 253 245 249 263 286 288 253 247 235 234 253 254 255 263 258 257 258 256 260 258 254 251 249 259 271 275 276 273 272 281 289 296 291 275 264 258 255 254 254 253 248 244 242 237 231 222 219 223 228 228 220 209 208 211 210 215 218 213 212 213 211 208 204 209 215 210 201 203 203 211 216 209 205 207 208 212 214
273 271 302 0 115 139 160 213 257 259 238 236 252 259 250 258 272 250 230 248 259 260 267 269 269 263 256 261 265 265 264 264 273 282 287 286 273 266 275 287 297 302 295 283 272 265 259 255 253 248 244 242 237 230 222 217 221 227 225 218 212 209 210 210 213 215 214 211 209 207 206 204 208 214 210 201 201 203 208 210 206 203 204 206 209 211
262 243 269 307 116 177 232 203 234 278 274 236 238 232 227 237 253 259 253 250 260 269 271 274 276 270 270 275 273 273 274 275 280 287 290 283 267 261 271 286 295 297 296 293 286 279 272 263 259 254 248 243 236 228 220 215 219 223 220 215 214 210 205 207 210 210 207 205 204 205 205 203 205 210 207 200 201 204 206 206 204 203 202 202 206 207
238 236 263 272 259 252 256 222 231 269 280 260 244 233 230 229 232 248 249 237 243 257 259 270 280 281 288 290 272 268 267 268 286 303 298 284 274 273 281 291 296 295 292 292 289 285 279 270 264 259 254 247 236 227 218 214 216 219 217 213 212 207 202 205 208 206 203 202 204 204 202 201 203 206 202 199 202 203 204 204 202 202 201 201 205 207
240 250 266 269 271 271 272 261 248 259 265 260 252 243 238 231 229 239 247 238 240 248 251 262 273 277 283 280 251 265 267 273 319 319 306 298 291 284 285 290 292 289 289 292 290 286 280 272 265 259 254 248 238 227 219 213 212 217 217 211 206 203 201 202 204 204 203 203 203 202 201 200 200 203 203 201 202 201 200 201 200 199 200 200 203 205
320 256 266 277 283 276 267 267 259 252 250 249 243 238 238 234 229 238 255 262 259 257 257 257 258 264 272 252 235 266 271 283 310 294 282 304 303 288 285 287 287 287 291 293 291 285 279 271 264 258 252 247 239 227 218 214 211 214 214 207 201 201 198 199 203 205 203 202 202 201 201 198 197 203 205 204 204 201 197 197 200 200 198 197 202 204
147 256 262 294 301 301 298 298 261 243 241 251 248 236 238 243 241 243 250 259 264 261 259 259 258 260 258 185 216 248 250 265 283 268 259 288 296 288 286 285 283 288 293 294 293 288 280 273 265 258 252 246 238 226 217 214 211 210 209 204 198 196 195 197 202 204 203 201 200 201 201 197 196 203 207 208 207 202 195 196 202 204 200 197 202 204
212 263 240 277 297 302 304 301 298 286 284 289 274 251 244 247 247 249 251 251 256 258 256 255 262 271 276 258 248 254 255 265 277 273 269 278 284 284 287 286 287 291 294 296 296 291 283 277 270 262 255 246 235 224 216 213 210 207 206 202 197 194 194 196 199 201 201 200 200 201 201 197 196 203 209 209 206 200 194 197 205 207 202 198 203 207
228 274 236 243 258 268 283 286 284 292 285 284 280 266 252 245 244 250 256 252 259 274 271 258 260 272 280 280 280 284 286 286 287 283 274 278 288 291 289 287 289 290 292 294 293 291 287 280 274 267 258 247 233 222 213 210 209 204 201 200 197 196 194 194 197 199 200 200 200 200 200 198 198 204 208 208 203 197 193 199 208 208 202 202 207 209
283 294 255 244 250 254 267 276 278 278 273 273 276 271 260 246 241 241 246 254 265 279 275 268 272 279 284 288 292 297 302 304 304 296 284 288 299 299 291 289 291 290 291 292 289 288 288 282 276 270 260 247 231 220 211 207 206 202 196 196 196 194 192 193 195 197 199 199 199 201 200 198 197 201 205 205 201 194 190 199 209 208 203 205 210 210
297 291 283 273 277 277 272 270 274 277 273 266 266 268 266 256 247 244 247 254 260 264 267 278 289 289 287 290 293 298 303 303 299 296 288 288 296 298 292 291 292 291 292 293 288 284 284 282 278 271 260 244 227 216 208 205 203 198 192 193 195 192 191 192 193 195 198 198 200 201 199 197 197 198 202 202 199 195 191 197 208 208 203 206 210 210
267 287 305 302 299 304 303 285 280 280 279 274 266 266 269 265 258 255 257 258 261 263 266 275 283 283 282 286 291 296 299 296 293 293 287 281 285 291 291 288 289 292 293 290 285 281 282 283 281 276 262 240 222 212 206 202 200 194 188 189 191 189 189 192 194 195 196 197 199 199 196 196 196 194 197 200 199 197 191 194 205 209 205 205 209 210
159 291 317 310 303 316 334 334 331 316 287 298 275 261 271 277 268 262 262 261 261 264 266 270 276 277 279 286 293 298 299 297 295 296 292 286 286 288 287 284 285 289 289 287 286 283 283 286 286 283 267 236 218 210 204 201 198 192 188 187 188 187 188 192 194 195 196 196 198 197 194 194 195 194 197 199 199 197 192 191 202 208 205 205 208 210
256 293 314 313 313 335 351 345 348 1 138 66 11 327 311 308 296 284 280 273 266 268 272 273 273 276 288 303 306 303 302 300 298 298 297 293 290 286 281 279 281 284 286 290 295 293 291 293 292 289 273 239 218 210 204 201 196 190 187 188 188 187 189 192 194 195 196 197 197 196 195 195 195 195 197 197 197 198 194 190 198 205 205 204 207 209
309 312 320 321 320 333 342 344 346 303 201 54 14 337 314 312 314 314 312 300 280 272 277 277 278 295 311 314 309 303 303 302 300 299 296 293 290 283 277 275 279 283 285 291 299 301 299 299 295 288 275 245 219 209 205 200 195 189 187 189 189 188 189 191 193 194 194 195 195 196 198 197 193 193 197 199 197 196 195 190 195 203 205 205 206 209
317 319 322 326 316 315 326 328 308 290 327 63 1 311 292 294 303 308 305 299 291 284 286 292 305 315 314 309 309 308 307 308 306 301 295 291 289 282 275 275 282 284 285 292 301 303 302 301 294 285 275 249 219 208 204 199 194 190 188 188 189 188 189 190 191 192 193 194 194 195 197 196 192 193 198 198 195 195 195 192 193 200 205 205 206 209
313 320 319 320 314 308 315 313 300 328 46 125 250 296 301 289 294 299 293 293 298 291 287 301 317 318 314 314 320 318 313 313 309 300 292 287 285 281 276 276 277 276 283 294 300 299 299 296 287 277 271 252 222 207 201 197 194 192 190 189 189 188 188 190 191 192 193 193 194 196 197 195 194 195 194 194 195 196 196 195 193 197 203 206 207 209
316 319 318 320 325 316 310 320 331 33 113 206 256 301 320 309 312 314 302 310 352 325 306 321 322 321 321 321 321 320 320 317 307 297 291 287 284 282 280 284 290 288 290 294 294 292 289 288 283 273 263 249 223 207 199 195 193 192 191 191 189 189 188 189 191 192 194 195 197 199 199 198 197 196 193 195 198 196 197 201 200 198 203 206 206 206
324 322 323 326 344 343 321 319 324 139 118 9 316 328 334 325 320 319 310 333 22 358 341 331 321 319 321 317 316 319 322 318 306 303 313 310 306 313 310 308 307 298 291 288 287 285 282 280 279 271 256 239 220 208 199 193 190 191 192 191 190 189 190 190 191 193 196 197 197 197 198 199 199 195 194 199 201 201 205 208 204 201 204 205 205 206
329 328 323 317 331 341 327 323 334 345 7 8 352 340 334 326 320 320 311 272 287 335 335 329 319 318 318 314 314 317 318 316 303 307 326 326 325 326 320 314 307 295 288 287 285 283 279 274 271 264 248 230 218 208 199 192 188 187 190 192 190 189 190 191 192 193 196 198 198 198 198 199 200 198 200 206 209 211 214 212 207 207 207 206 206 207
340 333 319 319 334 344 337 333 339 347 20 10 353 342 336 330 326 320 302 230 345 335 332 328 322 319 316 312 312 310 309 309 297 300 313 317 317 317 315 310 301 290 286 287 282 279 278 271 262 253 236 221 213 205 198 193 189 186 189 191 191 189 190 192 192 192 195 197 197 198 197 199 203 207 211 214 214 215 214 210 209 211 209 207 207 208
354 345 334 340 347 347 342 332 327 330 54 6 353 343 334 327 321 325 337 336 334 330 327 324 319 314 311 310 311 307 295 291 288 295 303 308 311 311 307 300 292 285 282 282 278 275 273 263 250 238 220 210 205 199 194 192 189 187 188 189 190 190 190 191 192 193 196 197 197 197 199 203 209 214 215 213 213 215 213 208 209 211 209 207 208 207
356 350 350 358 353 344 340 329 324 333 70 2 351 344 333 322 316 358 357 319 315 319 320 320 317 312 309 307 307 302 293 290 289 291 298 304 308 306 301 294 289 284 281 281 280 275 269 255 239 224 211 202 197 192 190 188 187 187 187 186 189 191 191 192 194 196 197 198 198 199 205 211 214 215 215 213 215 216 213 211 212 211 207 205 205 204
353 346 351 2 350 340 341 328 322 338 29 352 344 342 341 336 340 350 318 303 308 313 315 318 316 310 308 305 301 300 298 297 299 300 303 309 310 302 297 294 292 291 292 295 298 291 279 265 239 217 202 196 192 188 186 186 186 188 187 188 190 191 190 192 196 198 197 196 199 204 210 214 215 214 214 214 215 215 211 210 211 208 204 202 204 206
353 345 346 360 346 330 338 341 337 344 346 341 338 341 0 352 326 312 305 304 311 314 314 317 314 311 311 309 303 303 303 305 310 310 308 310 309 304 302 301 299 299 302 310 319 321 316 292 251 217 197 191 188 186 184 184 185 187 187 188 189 188 188 189 193 197 196 196 203 210 213 212 211 211 211 211 213 212 207 205 206 206 204 203 205 209
3 354 337 348 350 336 336 342 336 318 323 332 334 331 332 325 313 310 310 309 311 314 316 315 312 313 317 315 310 310 312 315 319 316 312 314 314 309 308 310 308 305 311 324 330 330 328 283 252 224 201 191 184 181 183 183 183 184 185 185 184 184 187 189 190 193 195 197 202 208 209 207 206 208 208 209 211 210 204 202 205 206 204 201 203 208
353 349 326 318 322 312 298 302 308 313 321 329 329 323 324 324 320 319 319 314 311 315 317 314 312 316 321 323 319 315 316 322 326 324 317 315 316 314 313 317 316 312 325 339 327 316 313 273 246 235 206 190 181 180 183 182 181 182 183 182 182 183 186 189 189 192 195 198 202 204 204 203 204 205 206 207 209 207 201 201 205 204 201 199 201 205
327 328 313 305 310 306 298 303 316 323 326 326 322 321 326 329 327 326 325 321 318 318 319 317 316 319 324 327 324 317 318 326 332 335 328 318 316 320 321 323 327 325 334 336 311 300 310 306 243 233 192 181 185 188 187 182 181 181 181 182 183 184 186 188 190 191 194 198 202 203 202 201 201 203 204 205 206 204 200 201 205 203 200 200 202 203
332 339 318 309 320 321 315 325 334 330 324 321 321 326 334 334 331 330 328 325 321 320 322 324 326 327 330 333 330 327 329 331 335 340 340 331 324 330 331 334 342 339 338 337 315 304 320 5 52 195 176 185 198 199 191 183 180 179 178 179 182 184 186 187 188 188 191 197 200 201 201 202 202 202 203 204 204 202 200 203 205 202 200 201 204 203
332 339 325 318 323 318 314 329 334 325 317 317 325 332 335 335 333 330 328 326 324 323 325 329 331 331 333 336 336 336 337 338 340 344 344 341 340 344 343 345 356 356 346 342 334 323 330 2 36 126 167 191 207 206 196 187 184 182 178 175 178 184 188 191 191 189 190 197 200 200 202 204 204 202 202 203 203 199 199 203 206 204 203 204 205 204
322 315 320 324 321 315 318 333 335 327 317 324 334 334 334 334 332 328 328 329 327 326 329 330 330 332 335 337 338 339 339 342 346 348 348 348 351 356 1 8 17 20 4 346 341 343 345 354 26 75 146 196 212 208 197 188 185 187 185 179 180 188 194 198 202 200 195 197 200 202 203 205 205 203 202 201 199 197 199 204 206 206 206 208 210 211
320 307 321 327 320 320 329 334 335 331 320 324 330 330 329 330 329 326 328 330 329 327 329 329 330 334 338 339 340 341 340 342 347 351 354 359 2 5 13 19 24 32 22 352 341 349 1 17 64 82 121 191 214 208 194 188 187 191 192 187 187 192 196 198 200 199 197 198 201 201 201 203 203 204 204 201 196 196 199 203 205 206 209 212 215 216
324 318 326 323 311 312 319 325 328 324 312 314 320 321 321 325 328 326 326 328 327 326 329 330 330 332 336 340 345 348 346 345 351 357 1 6 7 8 15 20 22 27 24 4 350 350 3 39 87 109 137 172 194 196 192 194 194 194 197 198 198 201 203 203 200 195 194 198 202 202 203 204 204 204 205 204 198 195 197 200 202 205 209 213 215 216
Height
1496 1494 1490 1487 1484 1484 1487 1488 1487 1485 1486 1487 1485 1484 1481 1479 1475 1471 1472 1474 1479 1480 1475 1472 1471 1470 1469 1467 1467 1469 1470 1470 1471 1471 1471 1471 1471 1471 1471 1471 1471 1472 1473 1474 1475 1477 1478 1479 1479 1480 1482 1483 1483 1485 1488 1490 1492 1493 1495 1498 1501 1504 1507 1508 1509 1510 1513 1515 1517 1519 1522 1524 1526 1528 1530 1531 1534 1537 1539 1540 1541 1543 1545 1547 1549 1551
1496 1493 1486 1484 1485 1488 1489 1489 1489 1489 1488 1487 1486 1483 1479 1476 1472 1469 1471 1475 1478 1480 1474 1470 1470 1468 1466 1466 1465 1466 1466 1466 1468 1468 1468 1469 1469 1469 1469 1469 1470 1470 1471 1472 1472 1474 1475 1477 1477 1477 1478 1480 1480 1481 1483 1485 1489 1491 1493 1496 1498 1500 1503 1505 1506 1507 1509 1512 1514 1516 1519 1522 1524 1526 1528 1530 1532 1535 1537 1538 1540 1542 1544 1546 1548 1550
1490 1488 1485 1485 1488 1490 1489 1488 1489 1489 1488 1486 1483 1481 1477 1472 1469 1467 1470 1475 1476 1477 1472 1468 1468 1466 1463 1462 1461 1462 1462 1463 1465 1465 1465 1466 1467 1467 1467 1468 1468 1469 1469 1469 1470 1471 1473 1474 1475 1474 1475 1477 1478 1479 1480 1482 1485 1488 1491 1495 1496 1497 1499 1502 1503 1504 1506 1509 1511 1514 1517 1520 1523 1524 1526 1528 1531 1533 1535 1536 1538 1540 1542 1544 1546 1548
1486 1483 1484 1487 1489 1489 1488 1487 1487 1487 1485 1484 1481 1479 1474 1469 1470 1470 1470 1474 1474 1473 1471 1469 1468 1464 1461 1459 1457 1458 1459 1459 1461 1462 1463 1464 1464 1464 1465 1465 1466 1466 1467 1467 1468 1469 1470 1472 1472 1472 1472 1473 1475 1477 1478 1481 1482 1484 1488 1491 1493 1495 1496 1499 1500 1502 1504 1507 1510 1512 1515 1518 1521 1523 1525 1527 1529 1531 1533 1534 1536 1538 1540 1542 1544 1547
1485 1481 1483 1486 1487 1488 1488 1486 1485 1485 1482 1479 1477 1477 1474 1470 1473 1473 1472 1473 1473 1471 1470 1470 1469 1461 1456 1456 1452 1451 1453 1454 1456 1457 1458 1459 1459 1460 1461 1462 1463 1463 1464 1465 1465 1466 1467 1469 1470 1470 1471 1471 1472 1474 1476 1479 1480 1481 1484 1488 1491 1492 1494 1496 1498 1500 1502 1504 1507 1510 1512 1515 1519 1521 1522 1524 1527 1528 1530 1532 1534 1536 1538 1540 1542 1545
1483 1482 1485 1485 1484 1485 1485 1484 1482 1482 1480 1476 1473 1473 1473 1474 1475 1476 1476 1475 1474 1470 1463 1465 1470 1458 1447 1446 1445 1445 1447 1448 1450 1451 1452 1453 1454 1456 1457 1458 1459 1460 1461 1461 1462 1464 1464 1466 1467 1468 1469 1469 1469 1471 1473 1476 1478 1480 1483 1486 1488 1490 1491 1493 1495 1497 1500 1501 1504 1506 1508 1511 1514 1516 1518 1521 1523 1525 1528 1530 1532 1535 1537 1538 1541 1543
1483 1483 1485 1485 1484 1483 1482 1481 1480 1479 1480 1476 1469 1469 1472 1475 1476 1475 1474 1475 1475 1468 1456 1458 1466 1457 1443 1439 1440 1442 1444 1444 1445 1447 1447 1449 1450 1451 1452 1453 1454 1455 1457 1458 1459 1460 1461 1463 1464 1465 1466 1466 1467 1468 1471 1473 1475 1477 1480 1483 1485 1487 1489 1490 1492 1494 1497 1498 1500 1502 1505 1508 1510 1513 1516 1519 1522 1524 1526 1529 1531 1533 1535 1537 1539 1541
1482 1483 1484 1483 1482 1481 1479 1477 1475 1475 1478 1473 1467 1471 1477 1476 1475 1473 1472 1472 1469 1464 1459 1458 1463 1462 1451 1441 1437 1441 1444 1444 1445 1444 1444 1445 1446 1447 1448 1449 1451 1452 1453 1454 1455 1456 1458 1459 1460 1461 1462 1463 1465 1466 1468 1469 1471 1473 1477 1480 1482 1484 1486 1487 1489 1491 1494 1495 1497 1500 1503 1506 1509 1511 1514 1517 1520 1522 1525 1527 1529 1531 1533 1535 1537 1539
1480 1482 1482 1481 1481 1479 1475 1473 1472 1473 1475 1472 1467 1472 1476 1474 1472 1471 1470 1469 1464 1465 1464 1456 1457 1462 1455 1441 1437 1440 1444 1445 1443 1440 1439 1440 1441 1442 1444 1445 1447 1448 1449 1450 1451 1452 1454 1455 1456 1458 1459 1461 1462 1464 1464 1465 1467 1470 1473 1476 1479 1481 1483 1484 1486 1488 1491 1493 1495 1497 1500 1504 1507 1510 1513 1515 1518 1520 1523 1525 1526 1529 1531 1532 1535 1537
1478 1480 1481 1482 1480 1477 1474 1473 1474 1475 1475 1472 1470 1473 1473 1471 1471 1471 1470 1466 1463 1467 1465 1454 1452 1457 1450 1438 1434 1438 1441 1440 1437 1434 1434 1435 1436 1438 1439 1441 1443 1445 1446 1447 1447 1448 1449 1451 1453 1454 1456 1458 1459 1460 1461 1462 1464 1467 1469 1472 1475 1478 1480 1482 1484 1486 1488 1491 1493 1495 1497 1500 1504 1507 1510 1513 1515 1518 1520 1522 1524 1526 1528 1530 1532 1534
1477 1478 1480 1481 1479 1475 1474 1473 1473 1475 1475 1471 1472 1474 1471 1468 1466 1467 1465 1463 1465 1466 1460 1451 1449 1452 1449 1438 1431 1431 1432 1432 1431 1431 1430 1431 1433 1434 1436 1438 1440 1441 1442 1443 1444 1445 1446 1447 1449 1451 1452 1454 1456 1457 1458 1459 1460 1464 1466 1468 1472 1476 1478 1480 1482 1484 1486 1488 1491 1493 1495 1498 1502 1505 1507 1509 1512 1515 1517 1520 1522 1524 1526 1528 1530 1532
1473 1473 1474 1476 1477 1475 1475 1474 1471 1473 1474 1473 1472 1471 1470 1467 1465 1465 1463 1464 1470 1464 1451 1445 1445 1450 1450 1438 1429 1427 1426 1427 1429 1429 1429 1430 1431 1432 1433 1435 1436 1438 1439 1440 1441 1441 1443 1444 1445 1447 1448 1450 1452 1453 1454 1455 1457 1461 1464 1465 1467 1471 1474 1476 1479 1482 1483 1485 1488 1491 1492 1495 1499 1503 1504 1506 1509 1512 1514 1517 1519 1521 1523 1526 1528 1529
1468 1467 1469 1473 1475 1475 1474 1471 1468 1468 1470 1471 1469 1468 1471 1470 1470 1471 1466 1463 1464 1454 1442 1439 1440 1442 1440 1431 1427 1426 1424 1424 1427 1427 1428 1429 1429 1430 1431 1432 1433 1435 1435 1436 1437 1438 1439 1440 1441 1442 1444 1446 1448 1449 1450 1451 1454 1457 1459 1461 1463 1467 1470 1473 1476 1479 1481 1482 1486 1488 1490 1493 1496 1500 1502 1504 1507 1510 1512 1514 1516 1519 1521 1523 1525 1527
1470 1465 1468 1471 1472 1473 1472 1469 1466 1464 1465 1467 1465 1467 1471 1470 1473 1473 1462 1457 1456 1447 1436 1432 1435 1438 1433 1426 1424 1423 1422 1423 1424 1425 1426 1427 1428 1428 1428 1429 1430 1431 1432 1433 1434 1434 1435 1436 1438 1439 1440 1442 1443 1445 1446 1448 1450 1452 1455 1457 1460 1463 1466 1469 1472 1476 1478 1480 1483 1486 1488 1491 1493 1497 1500 1502 1505 1507 1509 1512 1514 1516 1519 1521 1522 1524
1482 1473 1468 1469 1469 1470 1469 1467 1466 1463 1462 1461 1459 1462 1465 1464 1468 1467 1458 1456 1455 1447 1436 1430 1434 1439 1433 1423 1418 1417 1419 1420 1421 1422 1423 1424 1425 1425 1425 1425 1426 1427 1428 1429 1430 1431 1431 1433 1434 1436 1437 1438 1439 1441 1443 1444 1445 1448 1451 1454 1457 1460 1462 1465 1468 1471 1474 1477 1481 1484 1486 1488 1490 1493 1497 1500 1503 1505 1507 1509 1511 1514 1516 1518 1520 1522
1485 1474 1465 1466 1468 1468 1468 1465 1465 1466 1463 1457 1455 1460 1461 1457 1459 1460 1457 1456 1456 1456 1448 1437 1433 1431 1425 1417 1414 1417 1419 1418 1419 1420 1421 1422 1421 1422 1422 1421 1422 1423 1424 1425 1426 1427 1428 1429 1431 1432 1433 1434 1435 1438 1439 1440 1441 1443 1446 1450 1453 1456 1458 1461 1464 1467 1471 1474 1478 1481 1484 1486 1487 1490 1494 1497 1500 1502 1504 1506 1509 1511 1513 1516 1518 1520
1485 1474 1465 1468 1468 1467 1469 1467 1466 1467 1464 1457 1456 1458 1456 1453 1457 1461 1460 1455 1458 1462 1454 1441 1435 1429 1423 1418 1413 1415 1417 1415 1416 1416 1416 1417 1418 1419 1420 1419 1419 1419 1420 1422 1423 1424 1425 1426 1427 1428 1429 1430 1431 1433 1435 1436 1436 1438 1442 1446 1449 1452 1454 1457 1459 1463 1467 1471 1474 1478 1481 1483 1484 1487 1491 1494 1496 1499 1502 1504 1506 1508 1511 1514 1516 1518
1492 1481 1468 1469 1469 1467 1469 1470 1467 1466 1464 1462 1460 1456 1454 1456 1459 1462 1464 1460 1460 1460 1447 1436 1434 1430 1426 1420 1411 1411 1413 1412 1412 1411 1411 1414 1417 1418 1418 1418 1417 1416 1417 1419 1420 1421 1422 1421 1423 1424 1425 1426 1427 1429 1431 1432 1433 1435 1438 1441 1445 1448 1450 1453 1456 1459 1463 1467 1470 1474 1477 1480 1481 1483 1488 1491 1494 1497 1499 1500 1503 1506 1508 1511 1513 1515
1496 1488 1468 1463 1468 1469 1471 1474 1470 1465 1464 1464 1461 1456 1458 1463 1462 1462 1468 1467 1461 1457 1446 1433 1429 1427 1423 1417 1411 1410 1410 1408 1409 1410 1410 1412 1414 1417 1417 1417 1416 1415 1414 1415 1416 1417 1417 1417 1417 1419 1420 1421 1423 1425 1426 1429 1430 1431 1433 1436 1440 1444 1447 1451 1453 1455 1459 1463 1467 1471 1474 1477 1478 1480 1485 1489 1491 1494 1495 1497 1500 1503 1505 1508 1509 1512
1497 1494 1475 1463 1468 1472 1473 1476 1474 1465 1462 1462 1461 1459 1459 1460 1459 1459 1462 1461 1456 1453 1446 1435 1430 1424 1415 1410 1408 1407 1405 1406 1410 1411 1412 1412 1413 1415 1417 1416 1415 1414 1414 1413 1413 1413 1413 1413 1413 1414 1415 1416 1418 1420 1422 1424 1425 1426 1429 1432 1436 1441 1445 1449 1450 1452 1455 1460 1464 1468 1470 1474 1476 1477 1482 1486 1488 1490 1492 1494 1497 1500 1502 1504 1507 1509
1495 1496 1483 1470 1471 1475 1474 1474 1470 1464 1461 1462 1461 1459 1457 1456 1457 1458 1456 1450 1447 1450 1447 1441 1435 1422 1408 1404 1406 1405 1405 1408 1410 1411 1412 1412 1412 1413 1415 1415 1414 1413 1413 1412 1412 1411 1410 1410 1410 1410 1411 1412 1413 1415 1416 1419 1420 1421 1424 1427 1431 1436 1441 1444 1446 1448 1452 1457 1461 1464 1467 1470 1472 1474 1479 1482 1485 1487 1489 1492 1495 1497 1499 1502 1504 1506
1492 1493 1486 1475 1472 1471 1467 1466 1465 1462 1461 1459 1457 1453 1451 1451 1455 1459 1455 1443 1440 1446 1443 1440 1436 1420 1405 1404 1405 1405 1407 1409 1410 1412 1413 1411 1411 1411 1412 1413 1413 1412 1411 1410 1409 1408 1407 1407 1406 1406 1407 1407 1409 1410 1411 1413 1415 1417 1419 1422 1426 1431 1436 1439 1441 1445 1449 1452 1456 1460 1463 1466 1469 1471 1475 1479 1481 1484 1486 1489 1492 1494 1496 1499 1501 1504
1488 1490 1485 1474 1466 1462 1459 1458 1460 1460 1459 1457 1454 1448 1444 1445 1448 1451 1449 1440 1439 1440 1433 1431 1434 1420 1403 1402 1405 1405 1407 1408 1410 1412 1412 1411 1411 1411 1411 1411 1410 1409 1408 1407 1406 1405 1404 1403 1402 1402 1402 1403 1404 1405 1406 1408 1410 1412 1413 1417 1421 1425 1430 1434 1437 1441 1445 1449 1452 1456 1460 1463 1466 1468 1471 1475 1478 1480 1483 1486 1488 1491 1493 1496 1499 1501
1489 1489 1483 1470 1457 1452 1455 1459 1459 1458 1456 1454 1450 1445 1442 1441 1440 1440 1439 1437 1438 1436 1428 1430 1433 1418 1402 1402 1406 1406 1406 1407 1408 1410 1410 1410 1410 1410 1409 1408 1406 1406 1405 1404 1403 1402 1401 1400 1398 1398 1398 1397 1398 1400 1402 1404 1406 1407 1409 1412 1416 1420 1426 1431 1434 1437 1441 1445 1448 1453 1456 1459 1462 1464 1467 1471 1474 1476 1480 1482 1485 1488 1490 1494 1496 1498
1490 1486 1483 1475 1459 1448 1450 1456 1457 1454 1453 1449 1443 1441 1440 1438 1438 1438 1436 1436 1438 1433 1429 1431 1428 1411 1401 1403 1405 1405 1406 1405 1406 1407 1407 1407 1407 1407 1406 1404 1403 1403 1401 1400 1399 1398 1397 1396 1394 1393 1393 1392 1393 1395 1397 1399 1402 1403 1404 1407 1411 1416 1422 1427 1430 1433 1437 1441 1445 1448 1452 1455 1458 1460 1462 1466 1469 1472 1476 1478 1481 1484 1487 1491 1493 1496
1489 1484 1482 1481 1471 1460 1455 1454 1454 1454 1453 1448 1441 1439 1439 1439 1440 1440 1439 1441 1440 1431 1426 1428 1421 1406 1399 1401 1401 1401 1402 1402 1403 1403 1403 1404 1404 1403 1402 1401 1400 1399 1397 1395 1394 1393 1392 1391 1389 1388 1388 1388 1389 1390 1392 1395 1398 1399 1400 1403 1407 1412 1418 1423 1427 1430 1433 1437 1440 1444 1447 1450 1453 1456 1458 1462 1466 1469 1472 1474 1477 1480 1484 1488 1491 1493
1485 1481 1478 1478 1475 1468 1462 1456 1455 1457 1457 1451 1443 1438 1436 1437 1439 1441 1441 1440 1434 1429 1424 1419 1413 1407 1401 1399 1399 1397 1397 1398 1399 1399 1400 1401 1401 1400 1398 1397 1395 1394 1393 1391 1389 1387 1386 1385 1384 1383 1382 1383 1383 1385 1388 1390 1393 1395 1396 1399 1403 1408 1413 1418 1422 1426 1429 1432 1436 1439 1442 1445 1448 1451 1454 1458 1462 1465 1468 1471 1473 1477 1481 1485 1487 1490
1484 1479 1474 1474 1472 1466 1463 1458 1454 1456 1456 1452 1446 1440 1436 1434 1434 1438 1439 1435 1431 1432 1426 1411 1407 1409 1403 1397 1397 1396 1395 1395 1395 1396 1397 1397 1397 1396 1395 1393 1391 1389 1389 1388 1386 1382 1381 1380 1379 1378 1377 1377 1378 1380 1383 1386 1388 1391 1393 1395 1399 1404 1409 1414 1418 1422 1425 1428 1432 1434 1437 1441 1444 1448 1451 1454 1459 1462 1465 1467 1470 1473 1478 1481 1484 1487
1484 1478 1470 1469 1468 1462 1459 1455 1451 1452 1452 1450 1447 1442 1437 1434 1433 1433 1433 1430 1429 1431 1423 1410 1409 1411 1402 1396 1395 1395 1395 1395 1394 1394 1394 1394 1394 1392 1390 1388 1386 1383 1383 1383 1382 1379 1377 1376 1374 1374 1372 1372 1373 1376 1378 1381 1384 1387 1389 1391 1395 1399 1404 1409 1413 1417 1421 1424 1427 1429 1433 1437 1441 1444 1447 1450 1455 1459 1461 1463 1466 1470 1474 1478 1481 1484
1482 1475 1467 1469 1466 1456 1449 1447 1447 1448 1449 1448 1448 1443 1439 1436 1433 1431 1429 1427 1425 1424 1418 1413 1413 1409 1401 1396 1395 1394 1393 1393 1392 1391 1391 1391 1391 1389 1387 1384 1381 1378 1377 1378 1377 1376 1375 1373 1371 1369 1368 1367 1368 1371 1373 1376 1379 1381 1384 1387 1391 1395 1400 1405 1409 1413 1417 1420 1422 1426 1430 1434 1437 1441 1443 1446 1450 1454 1458 1460 1463 1467 1471 1474 1478 1481
1481 1474 1467 1469 1464 1451 1445 1445 1443 1443 1445 1446 1446 1443 1440 1438 1433 1429 1427 1425 1424 1420 1416 1415 1415 1406 1398 1395 1394 1392 1390 1390 1389 1388 1387 1387 1388 1387 1384 1381 1378 1374 1372 1371 1372 1372 1371 1369 1367 1365 1364 1363 1364 1366 1368 1371 1375 1377 1380 1384 1388 1392 1397 1401 1405 1409 1413 1416 1419 1422 1426 1430 1433 1436 1439 1443 1446 1451 1455 1458 1460 1463 1467 1471 1474 1478
1477 1473 1467 1467 1461 1448 1444 1445 1443 1443 1442 1442 1443 1443 1442 1440 1437 1433 1428 1425 1424 1421 1418 1418 1414 1404 1395 1394 1394 1391 1390 1389 1387 1386 1385 1385 1387 1387 1383 1379 1376 1372 1368 1365 1366 1366 1365 1364 1362 1360 1359 1359 1360 1362 1364 1367 1370 1373 1376 1380 1384 1389 1394 1398 1401 1405 1408 1412 1415 1419 1422 1426 1429 1432 1435 1438 1442 1447 1451 1455 1457 1460 1464 1467 1471 1474
1471 1469 1466 1466 1460 1447 1441 1443 1445 1445 1442 1441 1446 1449 1447 1444 1440 1435 1431 1426 1423 1422 1421 1418 1412 1403 1399 1400 1397 1392 1390 1388 1385 1383 1383 1383 1383 1383 1380 1375 1372 1369 1367 1364 1361 1360 1359 1359 1358 1358 1357 1356 1357 1359 1361 1364 1366 1368 1371 1376 1381 1386 1390 1394 1397 1401 1404 1408 1412 1415 1418 1421 1425 1428 1431 1434 1439 1443 1447 1452 1454 1456 1460 1464 1467 1471
1469 1467 1464 1465 1462 1450 1442 1442 1443 1442 1442 1446 1450 1450 1449 1447 1444 1440 1436 1429 1424 1422 1420 1416 1412 1410 1408 1404 1398 1393 1388 1386 1383 1381 1380 1379 1378 1377 1373 1372 1370 1368 1366 1363 1359 1356 1354 1354 1355 1355 1354 1354 1354 1355 1359 1361 1362 1365 1369 1374 1379 1382 1386 1389 1393 1397 1400 1404 1408 1412 1415 1418 1421 1424 1427 1431 1436 1439 1444 1448 1451 1454 1457 1461 1464 1468
1469 1466 1462 1461 1459 1451 1444 1441 1438 1438 1443 1450 1451 1448 1448 1446 1444 1441 1435 1427 1424 1423 1420 1419 1418 1415 1409 1401 1396 1392 1388 1384 1381 1378 1375 1374 1373 1372 1370 1370 1370 1369 1366 1364 1359 1355 1352 1353 1354 1354 1352 1351 1350 1352 1355 1357 1360 1363 1367 1372 1375 1378 1381 1385 1389 1393 1397 1401 1405 1408 1411 1414 1417 1420 1424 1428 1432 1436 1440 1445 1449 1452 1454 1457 1461 1465
1467 1464 1460 1457 1455 1452 1449 1443 1439 1441 1448 1451 1450 1448 1446 1443 1441 1439 1432 1424 1423 1423 1423 1423 1419 1413 1407 1400 1396 1393 1389 1384 1378 1373 1371 1370 1368 1368 1368 1368 1368 1367 1365 1363 1360 1356 1353 1351 1351 1352 1350 1348 1348 1349 1351 1354 1357 1361 1365 1369 1372 1374 1378 1382 1386 1390 1394 1398 1401 1404 1407 1410 1413 1417 1422 1425 1428 1433 1437 1441 1446 1449 1451 1454 1459 1462
1465 1462 1459 1457 1456 1456 1454 1444 1437 1439 1445 1448 1449 1449 1447 1445 1442 1440 1434 1427 1424 1424 1425 1424 1418 1411 1407 1401 1396 1392 1389 1383 1376 1370 1368 1368 1366 1366 1366 1365 1364 1363 1361 1361 1359 1357 1354 1350 1346 1346 1346 1345 1345 1346 1348 1351 1355 1358 1362 1366 1369 1372 1375 1379 1382 1387 1390 1393 1397 1401 1404 1408 1411 1415 1419 1422 1425 1430 1433 1438 1443 1446 1448 1451 1455 1458
1462 1460 1458 1457 1454 1453 1451 1443 1435 1436 1442 1447 1449 1447 1444 1441 1438 1436 1434 1429 1425 1424 1424 1422 1418 1412 1407 1402 1396 1392 1388 1383 1377 1371 1369 1368 1366 1365 1364 1362 1361 1359 1358 1357 1356 1353 1351 1348 1344 1342 1342 1342 1343 1343 1345 1348 1351 1355 1359 1363 1366 1369 1372 1375 1379 1384 1387 1390 1394 1398 1402 1405 1410 1413 1416 1419 1423 1426 1430 1435 1440 1443 1445 1448 1452 1455
1461 1457 1454 1453 1451 1450 1450 1446 1439 1440 1446 1449 1448 1443 1439 1436 1433 1431 1429 1425 1422 1423 1422 1419 1416 1411 1405 1401 1397 1392 1389 1386 1379 1370 1368 1369 1367 1365 1364 1362 1360 1358 1355 1353 1352 1350 1347 1344 1341 1339 1338 1339 1340 1341 1343 1346 1348 1352 1356 1359 1363 1366 1369 1372 1377 1381 1384 1388 1392 1395 1399 1403 1406 1409 1413 1417 1421 1424 1428 1433 1437 1440 1443 1446 1450 1453
1462 1459 1454 1453 1454 1453 1452 1448 1441 1442 1448 1449 1445 1443 1440 1435 1430 1427 1426 1422 1419 1420 1421 1418 1414 1409 1404 1400 1395 1391 1389 1386 1377 1369 1367 1368 1366 1363 1362 1361 1360 1357 1354 1351 1349 1346 1343 1340 1337 1335 1334 1334 1336 1338 1340 1343 1346 1349 1353 1356 1360 1363 1366 1370 1374 1378 1382 1385 1389 1393 1396 1400 1403 1406 1411 1416 1420 1423 1427 1431 1435 1438 1441 1445 1448 1451
1466 1463 1457 1457 1458 1456 1455 1450 1441 1440 1446 1447 1444 1444 1440 1432 1428 1433 1436 1432 1424 1421 1420 1417 1413 1408 1403 1398 1393 1389 1384 1380 1374 1369 1366 1366 1365 1361 1359 1358 1356 1353 1350 1348 1345 1342 1339 1336 1333 1331 1330 1331 1333 1335 1338 1340 1343 1347 1350 1354 1357 1361 1364 1368 1371 1375 1379 1383 1386 1390 1393 1396 1400 1404 1409 1414 1418 1421 1425 1428 1432 1435 1439 1443 1446 1449
1472 1468 1461 1462 1464 1461 1456 1451 1443 1440 1444 1445 1444 1443 1440 1436 1437 1441 1441 1435 1428 1423 1419 1416 1411 1405 1399 1395 1391 1385 1379 1374 1371 1367 1363 1364 1363 1360 1356 1354 1351 1349 1346 1343 1340 1336 1333 1330 1328 1326 1326 1327 1330 1332 1334 1337 1340 1344 1347 1351 1354 1358 1362 1366 1369 1372 1376 1379 1382 1386 1390 1393 1397 1402 1406 1410 1414 1418 1422 1425 1429 1433 1437 1441 1444 1447
1475 1473 1468 1467 1468 1465 1459 1456 1454 1450 1447 1445 1444 1443 1442 1444 1446 1443 1437 1432 1429 1424 1418 1414 1409 1402 1396 1393 1388 1381 1375 1371 1368 1365 1362 1361 1360 1357 1353 1349 1347 1345 1342 1338 1333 1329 1326 1325 1324 1322 1322 1323 1326 1328 1330 1333 1337 1341 1344 1348 1352 1356 1359 1363 1366 1369 1373 1376 1379 1383 1387 1391 1395 1399 1403 1407 1411 1415 1418 1422 1427 1431 1435 1438 1442 1445
1476 1476 1476 1472 1469 1469 1467 1463 1460 1456 1450 1448 1448 1446 1445 1445 1444 1440 1435 1430 1426 1423 1418 1413 1407 1399 1394 1391 1386 1379 1373 1368 1365 1362 1359 1357 1356 1353 1349 1346 1343 1340 1336 1332 1328 1325 1323 1323 1323 1322 1320 1320 1322 1325 1328 1331 1334 1338 1342 1345 1349 1353 1356 1360 1364 1367 1370 1373 1376 1380 1385 1389 1392 1396 1401 1405 1408 1412 1416 1420 1423 1428 1432 1436 1439 1441
1475 1477 1478 1475 1471 1471 1469 1463 1458 1455 1451 1450 1449 1446 1445 1443 1440 1438 1436 1430 1424 1421 1417 1412 1405 1397 1392 1389 1385 1379 1371 1365 1362 1359 1356 1354 1352 1349 1346 1343 1341 1337 1333 1330 1328 1326 1326 1325 1322 1320 1319 1319 1320 1323 1326 1329 1332 1335 1339 1343 1347 1350 1354 1357 1361 1364 1367 1370 1373 1377 1381 1384 1389 1393 1398 1402 1405 1408 1412 1416 1419 1423 1427 1431 1434 1437
1474 1475 1476 1473 1470 1467 1462 1458 1455 1453 1451 1449 1448 1445 1444 1442 1439 1436 1433 1429 1424 1420 1415 1410 1404 1397 1391 1387 1383 1377 1370 1364 1360 1356 1353 1351 1349 1346 1344 1342 1339 1335 1333 1331 1330 1329 1327 1325 1321 1318 1317 1319 1321 1323 1325 1329 1331 1333 1337 1341 1344 1348 1352 1355 1358 1361 1364 1367 1371 1375 1378 1382 1385 1389 1393 1397 1400 1402 1406 1409 1412 1417 1421 1425 1428 1432
1472 1474 1473 1470 1468 1465 1460 1454 1453 1452 1450 1448 1446 1443 1441 1439 1437 1434 1431 1427 1423 1418 1413 1408 1403 1396 1392 1388 1382 1376 1369 1363 1358 1355 1351 1349 1347 1345 1344 1341 1338 1335 1332 1332 1331 1328 1324 1323 1322 1320 1319 1320 1323 1324 1326 1328 1330 1332 1336 1339 1342 1346 1350 1353 1356 1359 1362 1365 1369 1372 1376 1379 1382 1384 1388 1392 1395 1398 1401 1404 1406 1410 1414 1418 1422 1426
1472 1475 1473 1469 1466 1463 1458 1454 1454 1453 1450 1448 1446 1442 1440 1437 1433 1431 1428 1425 1420 1415 1411 1407 1402 1396 1391 1387 1382 1377 1370 1363 1357 1354 1351 1348 1346 1345 1343 1340 1338 1335 1332 1332 1331 1327 1323 1322 1322 1323 1323 1324 1326 1327 1327 1328 1330 1332 1335 1338 1340 1344 1347 1351 1354 1357 1360 1363 1366 1369 1372 1375 1378 1382 1385 1388 1391 1394 1398 1401 1403 1405 1409 1412 1416 1419
1474 1475 1472 1468 1464 1460 1456 1454 1453 1449 1443 1442 1443 1441 1438 1435 1432 1428 1424 1421 1417 1413 1410 1406 1402 1397 1392 1387 1382 1377 1371 1364 1358 1355 1351 1347 1345 1345 1343 1340 1339 1336 1334 1333 1331 1328 1324 1322 1322 1323 1325 1327 1328 1328 1328 1329 1330 1332 1334 1337 1340 1342 1345 1349 1352 1355 1359 1362 1364 1367 1369 1373 1376 1379 1381 1383 1387 1391 1394 1396 1400 1403 1406 1411 1414 1417
1475 1473 1470 1468 1467 1463 1459 1458 1457 1451 1444 1440 1439 1438 1436 1434 1431 1426 1422 1418 1414 1410 1408 1404 1400 1395 1391 1388 1382 1377 1372 1366 1360 1356 1351 1347 1345 1345 1343 1341 1340 1338 1336 1334 1332 1328 1326 1325 1324 1324 1325 1327 1328 1328 1328 1329 1330 1332 1334 1337 1339 1341 1343 1346 1350 1354 1357 1359 1361 1364 1366 1369 1372 1375 1377 1379 1382 1385 1389 1393 1397 1401 1405 1409 1413 1416
1475 1473 1471 1471 1470 1467 1464 1461 1460 1458 1452 1446 1442 1440 1437 1434 1430 1426 1422 1418 1414 1410 1406 1403 1398 1392 1389 1386 1382 1377 1372 1367 1361 1356 1352 1349 1347 1346 1344 1342 1340 1338 1336 1334 1332 1329 1328 1327 1326 1325 1326 1327 1327 1327 1328 1329 1330 1332 1334 1336 1338 1340 1342 1345 1348 1351 1354 1356 1358 1360 1363 1366 1369 1373 1375 1376 1377 1379 1382 1387 1393 1398 1403 1408 1411 1415